Weather History for KSMQ - May, 2013

Change the Weather History Date:

Tuesday, May 28, 2013

  Actual Average Record
Temperature  
Mean Temperature 53 °F -  
Max Temperature 60 °F 73 °F 91 °F (2012)
Min Temperature 46 °F 49 °F 38 °F (1972)
Degree Days  
Heating Degree Days 12    
Growing Degree Days 3 (Base 50)    
Moisture  
Dew Point 55 °F    
Average Humidity 93    
Maximum Humidity 100    
Minimum Humidity 72    
Precipitation  
Precipitation 0.36 in - - ()
Sea Level Pressure  
Sea Level Pressure 30.16 in    
Wind  
Wind Speed 0 mph (NNE)    
Max Wind Speed 5 mph    
Max Gust Speed -    
Visibility 5 miles    
Events Rain    
Averages and records for this station are not official NWS values.
T = Trace of Precipitation, MM = Missing Value Source: NWS Daily Summary

Daily Weather History Graph

Daily Weather History Graph

Search for Another Location

Airport or City:

Trip Planner

Search our weather history database for the weather conditions in past years. The results will help you decide how hot, cold, wet, or windy it might be!

Date:

Astronomy

May. 28, 2013 Rise Set
Actual Time 5:31 AM EDT 8:20 PM EDT
Civil Twilight 4:59 AM EDT 8:52 PM EDT
Nautical Twilight 4:19 AM EDT 9:33 PM EDT
Astronomical Twilight 3:32 AM EDT 10:20 PM EDT
Moon 11:41 PM EDT (5/28) 9:17 AM EDT (5/28)
Length of Visible Light 15h 53m
Length of Day
14h 48m
Waning Gibbous, 83% of the Moon is Illuminated
May 28
Waning Gibbous
May 31
Last Quarter
Jun 8
New
Jun 16
First Quarter
Jun 23
Full

Hourly Weather History & Observations

Time (EDT) Temp. Dew Point Humidity Pressure Visibility Wind Dir Wind Speed Gust Speed Precip Events Conditions
12:53 AM 51.1 °F 46.9 °F 86% 30.19 in 10.0 mi Calm Calm - N/A   Clear
1:53 AM 50.0 °F 46.9 °F 89% 30.19 in 10.0 mi Calm Calm - N/A   Clear
2:53 AM 48.9 °F 46.9 °F 93% 30.19 in 10.0 mi Calm Calm - N/A   Clear
3:53 AM 48.0 °F 46.0 °F 93% 30.19 in 10.0 mi Calm Calm - N/A   Clear
4:53 AM 46.9 °F 45.0 °F 93% 30.18 in 10.0 mi Calm Calm - N/A   Clear
5:53 AM 46.9 °F 45.0 °F 93% 30.19 in 10.0 mi Calm Calm - N/A   Clear
6:53 AM 50.0 °F 46.9 °F 89% 30.20 in 10.0 mi Calm Calm - N/A   Clear
7:53 AM 55.0 °F 48.0 °F 77% 30.20 in 10.0 mi Calm Calm - N/A   Clear
8:53 AM 59.0 °F 51.1 °F 75% 30.21 in 10.0 mi Calm Calm - N/A   Partly Cloudy
9:53 AM 60.1 °F 51.1 °F 72% 30.21 in 10.0 mi Calm Calm - 0.00 in Rain Light Rain
10:53 AM 60.1 °F 51.1 °F 72% 30.22 in 6.0 mi Calm Calm - 0.03 in Rain Light Rain
11:53 AM 59.0 °F 57.0 °F 93% 30.21 in 7.0 mi Calm Calm - 0.03 in Rain Light Rain
12:53 PM 60.1 °F 57.0 °F 90% 30.19 in 6.0 mi Calm Calm - 0.04 in Rain Light Rain
1:53 PM 59.0 °F 57.9 °F 96% 30.16 in 4.0 mi Calm Calm - 0.05 in Rain Light Rain
2:20 PM 59.0 °F 57.2 °F 94% 30.16 in 3.0 mi Calm Calm - 0.02 in Rain Rain
2:31 PM 59.0 °F 55.4 °F 88% 30.17 in 2.5 mi North 3.5 mph - 0.05 in Rain Light Rain
2:41 PM 59.0 °F 57.2 °F 94% 30.16 in 2.0 mi Calm Calm - 0.08 in Rain Rain
2:48 PM 59.0 °F 57.2 °F 94% 30.16 in 1.5 mi Calm Calm - 0.11 in Rain Rain
2:53 PM 59.0 °F 57.0 °F 93% 30.17 in 2.5 mi Calm Calm - 0.11 in Rain Light Rain
2:56 PM 59.0 °F 57.2 °F 94% 30.16 in 3.0 mi NE 3.5 mph - 0.00 in Rain Light Rain
3:10 PM 57.2 °F 57.2 °F 100% 30.16 in 2.5 mi Calm Calm - 0.02 in Rain Light Rain
3:27 PM 59.0 °F 57.2 °F 94% 30.15 in 4.0 mi Calm Calm - 0.03 in Rain Light Rain
3:53 PM 59.0 °F 57.0 °F 93% 30.16 in 4.0 mi Calm Calm - 0.05 in Rain Light Rain
4:44 PM 57.2 °F 55.4 °F 94% 30.15 in 5.0 mi ENE 4.6 mph - 0.04 in Rain Light Rain
4:53 PM 57.9 °F 55.9 °F 93% 30.15 in 5.0 mi Calm Calm - 0.04 in Rain Light Rain
5:40 PM 57.2 °F 55.4 °F 94% 30.14 in 7.0 mi Calm Calm - 0.01 in   Overcast
5:53 PM 57.0 °F 55.0 °F 93% 30.14 in 7.0 mi NE 3.5 mph - 0.01 in   Overcast
6:11 PM 57.2 °F 55.4 °F 94% 30.14 in 5.0 mi Calm Calm - N/A   Overcast
6:53 PM 57.9 °F 55.9 °F 93% 30.14 in 4.0 mi Calm Calm - N/A   Overcast
7:47 PM 57.2 °F 57.2 °F 100% 30.13 in 2.5 mi Calm Calm - 0.00 in   Overcast
7:53 PM 57.9 °F 57.0 °F 97% 30.13 in 2.5 mi Calm Calm - 0.00 in   Overcast
8:27 PM 57.2 °F 55.4 °F 94% 30.12 in 3.0 mi Calm Calm - N/A   Overcast
8:53 PM 57.9 °F 57.0 °F 97% 30.12 in 2.5 mi Calm Calm - N/A   Overcast
9:04 PM 57.2 °F 55.4 °F 94% 30.11 in 3.0 mi NNE 4.6 mph - N/A   Overcast
9:24 PM 57.2 °F 57.2 °F 100% 30.12 in 2.5 mi Calm Calm - N/A   Overcast
9:45 PM 57.2 °F 57.2 °F 100% 30.13 in 3.0 mi Calm Calm - N/A   Overcast
9:53 PM 57.9 °F 57.0 °F 97% 30.13 in 3.0 mi Calm Calm - N/A   Overcast
10:04 PM 57.2 °F 57.2 °F 100% 30.12 in 2.5 mi Calm Calm - N/A   Overcast
10:17 PM 57.2 °F 57.2 °F 100% 30.12 in 2.0 mi Calm Calm - N/A   Overcast
10:25 PM 57.2 °F 57.2 °F 100% 30.13 in 1.8 mi Calm Calm - N/A   Overcast
10:33 PM 57.2 °F 57.2 °F 100% 30.13 in 2.5 mi Calm Calm - N/A   Overcast
10:53 PM 57.9 °F 57.0 °F 97% 30.13 in 2.0 mi Calm Calm - N/A   Overcast
11:25 PM 57.2 °F 57.2 °F 100% 30.11 in 1.8 mi Calm Calm - N/A   Overcast
11:33 PM 57.2 °F 57.2 °F 100% 30.12 in 3.0 mi Calm Calm - N/A   Overcast
11:45 PM 57.2 °F 57.2 °F 100% 30.12 in 2.5 mi Calm Calm - N/A   Overcast
11:53 PM 57.9 °F 57.0 °F 97% 30.12 in 2.5 mi Calm Calm - N/A   Overcast